Location: Banios
(43.0451°N, 0.2335°E)
Time: 11:11:34
(UTC+00:00)

Envisat - Pass Details

Date: 09 December 2021
Orbit: 764 x 766 km, 98.2° (Epoch: 28 January)

Event Time Altitude Azimuth Distance (km) Brightness Sun altitude
Rises 17:01:36 0° 197° (SSW) 3,218 6.9 -6.9°
Reaches altitude 10° 17:04:15 10° 210° (SSW) 2,297 6.4 -7.3°
Maximum altitude 17:08:26 26° 266° (W) 1,479 5.5 -8.0°
Drops below altitude 10° 17:12:40 10° 322° (NW) 2,312 5.7 -8.7°
Sets 17:15:22 0° 335° (NNW) 3,243 6.3 -9.2°
